Preview of NWS' New Version of Forecast
This preview is not operational and should not be used for support decisions.

Regional Weather Roundup (RWR)

Issued by National Weather Service (NWS)

                            
000
ASUS44 KMEG 210600
RWRTN 
TENNESSEE HOURLY STATE WEATHER ROUNDUP
NATIONAL WEATHER SERVICE MEMPHIS TN
100 AM CDT SUN JUL 21 2019

TNZ002-004-019-021-049-052-054-088>092-210700-
WEST TENNESSEE
  
CITY           SKY/WX    TMP DP  RH WIND       PRES   REMARKS
MEMPHIS INTL   FAIR      77  75  93 S7        29.98R                  
NWS MEMPHIS      N/A     77 N/A N/A MISG        N/A                   
JACKSON        FAIR      75  73  93 W5        29.99R                  
DYERSBURG      FAIR      77  75  93 CALM      29.98R                  
$$

TNZ008-025-027-028-033-062-065-066-210700-
NORTH MIDDLE TENNESSEE
  
CITY           SKY/WX    TMP DP  RH WIND       PRES   REMARKS
NASHVILLE      MOCLDY    72  68  88 CALM      30.01R                  
CLARKSVILLE    FAIR      74  71  91 SE7       29.98R                  
SMYRNA         FAIR      72  71  97 NE3       30.01R                  
CROSSVILLE     CLOUDY    72  70  93 CALM      30.05S                  
$$

TNZ061-075-076-078-094-096-097-210700-
SOUTH MIDDLE TENNESSEE
  
CITY           SKY/WX    TMP DP  RH WIND       PRES   REMARKS
$$

TNZ017-018-042-046-047-210700-
NORTHEAST TENNESSEE
  
CITY           SKY/WX    TMP DP  RH WIND       PRES   REMARKS
TRI CITIES     MOCLDY    73  71  93 CALM      30.07S                  
$$

TNZ012-013-036-069-073-074-210700-
CENTRAL EAST TENNESSEE
  
CITY           SKY/WX    TMP DP  RH WIND       PRES   REMARKS
KNOXVILLE      FAIR      75  72  90 N5        30.00F                  
OAK RIDGE      FAIR      75  72  90 CALM      30.03R                  
$$

TNZ083-085-099-210700-
SOUTHEAST TENNESSEE
  
CITY           SKY/WX    TMP DP  RH WIND       PRES   REMARKS
CHATTANOOGA    MOCLDY    77  75  93 S7        30.00F                  
$$

SKY/WX REPORTED AS FAIR MEANS FEW OR NO CLOUDS BELOW
12 THOUSAND FEET.